TimePST,TemperatureF,Dew PointF,Humidity,Sea Level PressureIn,VisibilityMPH,Wind Direction,Wind SpeedMPH,Gust SpeedMPH,PrecipitationIn,Events,Conditions,WindDirDegrees,DateUTC
12:55 AM,25.0,21.0,85,29.86,10.0,North,10.4,-,N/A,,Clear,350,2013-02-20 08:55:00
1:55 AM,23.0,19.9,88,29.88,10.0,Calm,Calm,-,N/A,,Clear,0,2013-02-20 09:55:00
2:55 AM,21.9,19.0,89,29.91,10.0,NNE,3.5,-,N/A,,Clear,30,2013-02-20 10:55:00
3:55 AM,21.9,17.1,82,29.92,10.0,North,6.9,-,N/A,,Clear,350,2013-02-20 11:55:00
4:55 AM,17.1,14.0,88,29.95,10.0,West,3.5,-,N/A,,Clear,260,2013-02-20 12:55:00
5:55 AM,19.9,16.0,85,29.98,10.0,Calm,Calm,-,N/A,,Clear,0,2013-02-20 13:55:00
7:55 AM,21.0,17.1,85,30.03,10.0,North,3.5,-,N/A,,Clear,350,2013-02-20 15:55:00
8:55 AM,24.1,19.9,84,30.04,10.0,West,8.1,-,N/A,,Clear,280,2013-02-20 16:55:00
9:55 AM,28.0,21.9,78,30.03,10.0,WSW,3.5,-,N/A,,Clear,240,2013-02-20 17:55:00
10:55 AM,34.0,21.0,59,30.02,10.0,North,10.4,16.1,N/A,,Partly Cloudy,360,2013-02-20 18:55:00
11:55 AM,35.1,19.0,52,30.02,10.0,Variable,4.6,-,N/A,,Clear,0,2013-02-20 19:55:00
12:55 PM,35.1,19.9,54,30.00,10.0,NNW,5.8,-,N/A,,Mostly Cloudy,330,2013-02-20 20:55:00
1:55 PM,36.0,19.0,50,29.99,10.0,NNW,8.1,-,N/A,,Clear,340,2013-02-20 21:55:00
2:55 PM,36.0,19.9,52,30.01,10.0,NW,9.2,-,N/A,,Partly Cloudy,310,2013-02-20 22:55:00
3:55 PM,36.0,19.0,50,30.00,10.0,North,3.5,-,N/A,,Partly Cloudy,360,2013-02-20 23:55:00
4:55 PM,34.0,19.9,56,30.01,10.0,NW,5.8,-,N/A,,Scattered Clouds,310,2013-02-21 00:55:00
5:55 PM,30.9,19.9,64,30.02,10.0,NNW,3.5,-,N/A,,Mostly Cloudy,330,2013-02-21 01:55:00
7:55 PM,26.1,21.9,84,30.04,10.0,Calm,Calm,-,N/A,,Partly Cloudy,0,2013-02-21 03:55:00
9:55 PM,26.1,21.9,84,30.03,10.0,Calm,Calm,-,N/A,,Overcast,0,2013-02-21 05:55:00
11:55 PM,26.1,21.9,84,30.01,10.0,Calm,Calm,-,N/A,,Mostly Cloudy,0,2013-02-21 07:55:00